This is the latest recevied weather packets stored in our database for station/object CX5ACA-13. If no packets are shown the sender has not sent any weather packets the latest 10 day(s).
| Time | Temp. | Humidity | Pressure | Rain* | Wind** | Luminosity | Snow |
|---|---|---|---|---|---|---|---|
| 1777989737 | 19.44° C | 79% | 1015.2 hPa | 0 mm | - | 138 W/m² | - |
| 1777989434 | 19.44° C | 79% | 1015.3 hPa | 0 mm | - | 119 W/m² | - |
| 1777989130 | 19.44° C | 79% | 1015.6 hPa | 0 mm | - | 103 W/m² | - |
| 1777988826 | 19.44° C | 78% | 1015.5 hPa | 0 mm | - | 105 W/m² | - |
| 1777988524 | 18.89° C | 78% | 1015.4 hPa | 0 mm | - | 141 W/m² | - |
| 1777988220 | 18.89° C | 79% | 1015.3 hPa | 0 mm | - | 171 W/m² | - |
| 1777987917 | 18.89° C | 79% | 1015.5 hPa | 0 mm | - | 155 W/m² | - |
| 1777987612 | 18.33° C | 79% | 1015.6 hPa | 0 mm | - | 127 W/m² | - |
| 1777987310 | 18.33° C | 80% | 1015.5 hPa | 0 mm | - | 105 W/m² | - |
| 1777987007 | 17.78° C | 81% | 1015.5 hPa | 0 mm | - | 93 W/m² | - |
| 1777986705 | 17.78° C | 81% | 1015.7 hPa | 0 mm | - | 93 W/m² | - |
| 1777986403 | 17.78° C | 81% | 1015.5 hPa | 0 mm | - | 101 W/m² | - |
| 1777986101 | 17.78° C | 80% | 1015.4 hPa | 0 mm | - | 119 W/m² | - |
| 1777985797 | 17.78° C | 81% | 1015.4 hPa | 0 mm | - | 125 W/m² | - |
| 1777985495 | 17.78° C | 81% | 1015.5 hPa | 0 mm | - | 118 W/m² | - |
| 1777985191 | 17.78° C | 80% | 1015.3 hPa | 0 mm | - | 115 W/m² | - |
| 1777984887 | 17.78° C | 81% | 1015.2 hPa | 0 mm | - | 109 W/m² | - |
| 1777984583 | 17.22° C | 80% | 1015.3 hPa | 0 mm | - | 99 W/m² | - |
| 1777984280 | 17.22° C | 80% | 1015.1 hPa | 0 mm | - | 79 W/m² | - |
| 1777983977 | 17.22° C | 80% | 1015 hPa | 0 mm | - | 72 W/m² | - |
| 1777983674 | 16.67° C | 81% | 1015 hPa | 0 mm | - | 60 W/m² | - |
| 1777983370 | 16.67° C | 81% | 1015.1 hPa | 0 mm | - | 56 W/m² | - |
| 1777983067 | 16.67° C | 81% | 1015 hPa | 0 mm | - | 50 W/m² | - |
| 1777982764 | 16.67° C | 81% | 1015.1 hPa | 0 mm | - | 41 W/m² | - |
| 1777982459 | 16.67° C | 81% | 1015 hPa | 0 mm | - | 44 W/m² | - |
* Rain latest hour (hover to see other rain measurements)
** Current wind speed in m/s (hover to see current wind gust speed)